Tracking 35274 objects as of 12-Sep-2026
HD Live streaming from Space Station
objects crossing your sky now

STARLINK-1306


STARLINK-1306 is no longer on orbit
STARLINK-1306 is classified as:


NORAD ID: 45362
Int'l Code: 2020-019C
Launch date: March 18, 2020
Source: United States (US)
Launch site: AIR FORCE EASTERN TEST RANGE (AFETR)
Decay date: 2026-01-14
Your satellite tracking list
Your tracking list is empty




NASA's NSSDC Master Catalog

Two Line Element Set (TLE):
1 45362U 20019C   26014.45524972  .12638296  12515-4  19010-3 0  9992
2 45362  53.0212 332.8947 0005276 207.1556 152.9218 16.48330869322628
Source of the keplerian elements: AFSPC